Time,TemperatureF,DewpointF,PressureIn,WindDirection,WindDirectionDegrees,WindSpeedMPH,WindSpeedGustMPH,Humidity,HourlyPrecipIn,Conditions,Clouds,dailyrainin,SoftwareType,DateUTC
2013-06-29 00:01:00,70.9,58.1,29.79,WNW,292,0.0,0.0,64,0.00,,---,0.00,VWS V14.01,2013-06-29 05:01:00,
2013-06-29 00:06:00,70.7,57.5,29.79,WNW,292,0.0,0.0,63,0.00,,---,0.00,VWS V14.01,2013-06-29 05:06:00,
2013-06-29 00:11:00,70.7,57.9,29.79,WNW,292,0.0,0.0,64,0.00,,---,0.00,VWS V14.01,2013-06-29 05:11:00,
2013-06-29 00:16:00,70.7,57.9,29.79,WNW,292,0.0,0.0,64,0.00,,---,0.00,VWS V14.01,2013-06-29 05:16:00,
2013-06-29 00:20:00,70.5,58.2,29.79,WNW,292,0.0,0.0,65,0.00,,---,0.00,VWS V14.01,2013-06-29 05:20:00,
2013-06-29 00:25:00,70.5,58.6,29.79,West,270,0.0,0.0,66,0.00,,---,0.00,VWS V14.01,2013-06-29 05:25:00,
2013-06-29 00:30:00,70.5,58.2,29.79,West,270,0.0,0.0,65,0.00,,---,0.00,VWS V14.01,2013-06-29 05:30:00,
2013-06-29 00:35:00,70.5,58.2,29.79,West,270,0.0,0.0,65,0.00,,---,0.00,VWS V14.01,2013-06-29 05:35:00,
2013-06-29 00:40:00,70.5,57.8,29.79,WSW,248,0.0,0.0,64,0.00,,---,0.00,VWS V14.01,2013-06-29 05:40:00,
2013-06-29 00:45:00,70.5,57.8,29.79,WSW,248,0.0,0.0,64,0.00,,---,0.00,VWS V14.01,2013-06-29 05:45:00,
2013-06-29 00:50:00,70.3,57.6,29.76,WSW,248,0.0,0.0,64,0.00,,---,0.00,VWS V14.01,2013-06-29 05:50:00,
2013-06-29 00:55:00,70.3,57.6,29.76,WSW,248,0.0,0.0,64,0.00,,---,0.00,VWS V14.01,2013-06-29 05:55:00,
2013-06-29 01:00:00,70.3,57.6,29.76,WSW,248,0.0,0.0,64,0.00,,---,0.00,VWS V14.01,2013-06-29 06:00:00,
2013-06-29 01:05:00,70.3,57.2,29.76,WSW,248,0.0,0.0,63,0.00,,---,0.00,VWS V14.01,2013-06-29 06:05:00,
2013-06-29 01:10:00,70.3,57.2,29.76,WSW,248,0.0,0.0,63,0.00,,---,0.00,VWS V14.01,2013-06-29 06:10:00,
2013-06-29 01:15:00,70.3,57.2,29.76,WNW,292,0.0,2.5,63,0.00,,---,0.00,VWS V14.01,2013-06-29 06:15:00,
2013-06-29 01:20:00,70.5,56.9,29.76,WNW,292,0.0,0.0,62,0.00,,---,0.00,VWS V14.01,2013-06-29 06:20:00,
2013-06-29 01:25:00,70.5,56.9,29.76,NW,315,0.0,0.0,62,0.00,,---,0.00,VWS V14.01,2013-06-29 06:25:00,
2013-06-29 01:30:00,70.5,56.9,29.76,WNW,292,0.0,0.0,62,0.00,,---,0.00,VWS V14.01,2013-06-29 06:30:00,
2013-06-29 01:35:00,70.5,56.9,29.76,WNW,292,0.0,0.0,62,0.00,,---,0.00,VWS V14.01,2013-06-29 06:35:00,
2013-06-29 01:40:00,70.3,56.3,29.76,WNW,292,0.0,0.0,61,0.00,,---,0.00,VWS V14.01,2013-06-29 06:40:00,
2013-06-29 01:45:00,70.3,56.7,29.76,West,270,0.0,0.0,62,0.00,,---,0.00,VWS V14.01,2013-06-29 06:45:00,
2013-06-29 01:50:00,70.3,56.3,29.76,West,270,0.0,0.0,61,0.00,,---,0.00,VWS V14.01,2013-06-29 06:50:00,
2013-06-29 01:55:00,70.3,56.7,29.76,WNW,292,0.0,0.0,62,0.00,,---,0.00,VWS V14.01,2013-06-29 06:55:00,
2013-06-29 02:00:00,70.2,56.1,29.76,North,0,0.0,0.0,61,0.00,,---,0.00,VWS V14.01,2013-06-29 07:00:00,
2013-06-29 02:05:00,70.3,56.3,29.76,NNW,338,0.0,0.0,61,0.00,,---,0.00,VWS V14.01,2013-06-29 07:05:00,
2013-06-29 02:10:00,70.5,56.4,29.76,NNW,338,0.0,0.0,61,0.00,,---,0.00,VWS V14.01,2013-06-29 07:10:00,
2013-06-29 02:15:00,70.5,56.4,29.76,NNW,338,3.1,3.1,61,0.00,,---,0.00,VWS V14.01,2013-06-29 07:15:00,
2013-06-29 02:20:00,70.7,57.1,29.74,ENE,68,1.3,2.5,62,0.00,,---,0.00,VWS V14.01,2013-06-29 07:20:00,
2013-06-29 02:25:00,70.9,56.8,29.74,East,90,4.0,4.0,61,0.00,,---,0.00,VWS V14.01,2013-06-29 07:25:00,
2013-06-29 02:30:00,71.2,57.1,29.74,WNW,292,4.9,4.9,61,0.00,,---,0.00,VWS V14.01,2013-06-29 07:30:00,
2013-06-29 02:35:00,71.4,57.3,29.74,North,0,1.6,3.8,61,0.00,,---,0.00,VWS V14.01,2013-06-29 07:35:00,
2013-06-29 02:40:00,71.4,57.3,29.74,North,0,3.4,3.4,61,0.00,,---,0.00,VWS V14.01,2013-06-29 07:40:00,
2013-06-29 02:45:00,71.4,57.3,29.74,NNW,338,2.2,3.4,61,0.00,,---,0.00,VWS V14.01,2013-06-29 07:45:00,
2013-06-29 02:50:00,71.4,57.3,29.74,NW,315,1.3,3.4,61,0.00,,---,0.00,VWS V14.01,2013-06-29 07:50:00,
2013-06-29 02:55:00,71.4,57.3,29.74,NNE,22,0.0,3.4,61,0.00,,---,0.00,VWS V14.01,2013-06-29 07:55:00,
2013-06-29 03:00:00,71.4,57.3,29.74,NNE,22,0.0,2.5,61,0.00,,---,0.00,VWS V14.01,2013-06-29 08:00:00,
2013-06-29 03:05:00,71.2,57.1,29.74,NW,315,1.1,4.3,61,0.00,,---,0.00,VWS V14.01,2013-06-29 08:05:00,
2013-06-29 03:10:00,71.2,57.1,29.74,North,0,0.9,0.9,61,0.00,,---,0.00,VWS V14.01,2013-06-29 08:10:00,
2013-06-29 03:15:00,71.2,57.6,29.74,WNW,292,2.5,3.1,62,0.00,,---,0.00,VWS V14.01,2013-06-29 08:15:00,
2013-06-29 03:20:00,71.1,57.0,29.74,NNE,22,0.0,4.0,61,0.00,,---,0.00,VWS V14.01,2013-06-29 08:20:00,
2013-06-29 03:25:00,71.1,57.4,29.74,NW,315,0.0,0.0,62,0.00,,---,0.00,VWS V14.01,2013-06-29 08:25:00,
2013-06-29 03:30:00,70.9,57.2,29.74,NNE,22,0.0,1.6,62,0.00,,---,0.00,VWS V14.01,2013-06-29 08:30:00,
2013-06-29 03:35:00,70.7,57.1,29.74,NNE,22,1.6,1.6,62,0.00,,---,0.00,VWS V14.01,2013-06-29 08:35:00,
2013-06-29 03:40:00,70.7,57.1,29.74,NNE,22,0.0,0.0,62,0.00,,---,0.00,VWS V14.01,2013-06-29 08:40:00,
2013-06-29 03:45:00,70.5,57.3,29.74,NNW,338,0.0,3.6,63,0.00,,---,0.00,VWS V14.01,2013-06-29 08:45:00,
2013-06-29 03:50:00,70.5,57.3,29.74,ENE,68,0.0,0.0,63,0.00,,---,0.00,VWS V14.01,2013-06-29 08:50:00,
2013-06-29 03:55:00,70.3,57.2,29.74,WNW,292,1.6,2.5,63,0.00,,---,0.00,VWS V14.01,2013-06-29 08:55:00,
2013-06-29 04:00:00,70.2,57.0,29.74,NNW,338,3.8,3.8,63,0.00,,---,0.00,VWS V14.01,2013-06-29 09:00:00,
2013-06-29 04:05:00,70.2,57.4,29.74,NNE,22,1.3,3.4,64,0.00,,---,0.00,VWS V14.01,2013-06-29 09:05:00,
2013-06-29 04:10:00,70.2,57.4,29.74,ENE,68,0.0,3.1,64,0.00,,---,0.00,VWS V14.01,2013-06-29 09:10:00,
2013-06-29 04:15:00,70.0,57.3,29.74,North,0,0.0,0.9,64,0.00,,---,0.00,VWS V14.01,2013-06-29 09:15:00,
2013-06-29 04:20:00,70.0,57.3,29.74,WNW,292,0.0,0.0,64,0.00,,---,0.00,VWS V14.01,2013-06-29 09:20:00,
2013-06-29 04:25:00,69.8,57.5,29.74,NW,315,0.0,0.0,65,0.00,,---,0.00,VWS V14.01,2013-06-29 09:25:00,
2013-06-29 04:30:00,69.8,57.5,29.74,NW,315,0.0,0.0,65,0.00,,---,0.00,VWS V14.01,2013-06-29 09:30:00,
2013-06-29 04:35:00,69.8,57.5,29.74,North,0,0.0,2.2,65,0.00,,---,0.00,VWS V14.01,2013-06-29 09:35:00,
2013-06-29 04:40:00,69.6,57.8,29.74,NW,315,0.0,0.0,66,0.00,,---,0.00,VWS V14.01,2013-06-29 09:40:00,
2013-06-29 04:45:00,69.4,57.6,29.74,WNW,292,0.0,0.0,66,0.00,,---,0.00,VWS V14.01,2013-06-29 09:45:00,
2013-06-29 04:50:00,69.4,57.6,29.74,NW,315,0.0,0.0,66,0.00,,---,0.00,VWS V14.01,2013-06-29 09:50:00,
2013-06-29 04:55:00,69.3,57.4,29.74,WNW,292,0.0,0.0,66,0.00,,---,0.00,VWS V14.01,2013-06-29 09:55:00,
2013-06-29 05:00:00,69.3,57.4,29.74,WNW,292,0.0,0.0,66,0.00,,---,0.00,VWS V14.01,2013-06-29 10:00:00,
2013-06-29 05:05:00,69.3,57.8,29.74,NNW,338,2.2,2.2,67,0.00,,---,0.00,VWS V14.01,2013-06-29 10:05:00,
2013-06-29 05:10:00,69.1,57.7,29.74,ESE,112,0.0,0.0,67,0.00,,---,0.00,VWS V14.01,2013-06-29 10:10:00,
2013-06-29 05:15:00,69.1,57.7,29.74,North,0,0.0,0.0,67,0.00,,---,0.00,VWS V14.01,2013-06-29 10:15:00,
2013-06-29 05:20:00,68.9,57.9,29.74,ENE,68,0.0,0.0,68,0.00,,---,0.00,VWS V14.01,2013-06-29 10:20:00,
2013-06-29 05:25:00,68.9,57.9,29.74,NNW,338,0.0,0.0,68,0.00,,---,0.00,VWS V14.01,2013-06-29 10:25:00,
2013-06-29 05:30:00,68.9,57.5,29.74,NNE,22,0.0,0.0,67,0.00,,---,0.00,VWS V14.01,2013-06-29 10:30:00,
2013-06-29 05:35:00,68.9,57.9,29.74,NNW,338,0.0,0.0,68,0.00,,---,0.00,VWS V14.01,2013-06-29 10:35:00,
2013-06-29 05:40:00,68.9,57.9,29.74,North,0,0.0,0.0,68,0.00,,---,0.00,VWS V14.01,2013-06-29 10:40:00,
2013-06-29 05:45:00,68.7,57.7,29.74,North,0,0.0,0.0,68,0.00,,---,0.00,VWS V14.01,2013-06-29 10:45:00,
2013-06-29 05:50:00,68.7,57.7,29.74,NNW,338,0.0,0.0,68,0.00,,---,0.00,VWS V14.01,2013-06-29 10:50:00,
2013-06-29 05:55:00,68.7,57.7,29.74,NNW,338,0.0,0.0,68,0.00,,---,0.00,VWS V14.01,2013-06-29 10:55:00,
2013-06-29 06:00:00,68.9,57.9,29.74,North,0,1.3,1.3,68,0.00,,---,0.00,VWS V14.01,2013-06-29 11:00:00,
2013-06-29 06:05:00,68.9,58.3,29.74,NNW,338,2.2,2.7,69,0.00,,---,0.00,VWS V14.01,2013-06-29 11:05:00,
2013-06-29 06:10:00,68.9,58.3,29.74,NNW,338,3.8,3.8,69,0.00,,---,0.00,VWS V14.01,2013-06-29 11:10:00,
2013-06-29 06:15:00,68.9,58.3,29.74,NNW,338,0.0,0.0,69,0.00,,---,0.00,VWS V14.01,2013-06-29 11:15:00,
2013-06-29 06:20:00,68.9,58.3,29.74,North,0,0.0,0.0,69,0.00,,---,0.00,VWS V14.01,2013-06-29 11:20:00,
2013-06-29 06:25:00,68.9,58.3,29.74,North,0,0.0,0.0,69,0.00,,---,0.00,VWS V14.01,2013-06-29 11:25:00,
2013-06-29 06:30:00,69.4,58.8,29.74,NNW,338,2.5,2.5,69,0.00,,---,0.00,VWS V14.01,2013-06-29 11:30:00,
2013-06-29 06:35:00,69.8,59.2,29.74,NNE,22,4.9,4.9,69,0.00,,---,0.00,VWS V14.01,2013-06-29 11:35:00,
2013-06-29 06:40:00,70.0,59.0,29.74,North,0,7.4,7.4,68,0.00,,---,0.00,VWS V14.01,2013-06-29 11:40:00,
2013-06-29 06:45:00,70.3,58.9,29.74,NE,45,2.7,2.9,67,0.00,,---,0.00,VWS V14.01,2013-06-29 11:45:00,
2013-06-29 06:49:00,70.3,58.5,29.74,North,0,2.7,2.7,66,0.00,,---,0.00,VWS V14.01,2013-06-29 11:49:00,
2013-06-29 06:54:00,70.3,58.5,29.74,ENE,68,2.7,2.7,66,0.00,,---,0.00,VWS V14.01,2013-06-29 11:54:00,
2013-06-29 06:59:00,70.5,58.2,29.74,NNE,22,2.7,2.7,65,0.00,,---,0.00,VWS V14.01,2013-06-29 11:59:00,
2013-06-29 07:04:00,70.7,58.4,29.74,NNW,338,4.0,4.0,65,0.00,,---,0.00,VWS V14.01,2013-06-29 12:04:00,
2013-06-29 07:09:00,70.9,58.5,29.74,North,0,2.0,2.0,65,0.00,,---,0.00,VWS V14.01,2013-06-29 12:09:00,
2013-06-29 07:14:00,71.1,58.7,29.74,East,90,2.5,3.8,65,0.00,,---,0.00,VWS V14.01,2013-06-29 12:14:00,
2013-06-29 07:19:00,71.2,58.5,29.74,NW,315,3.4,3.4,64,0.00,,---,0.00,VWS V14.01,2013-06-29 12:19:00,
2013-06-29 07:24:00,71.4,58.6,29.74,NE,45,5.4,6.9,64,0.00,,---,0.00,VWS V14.01,2013-06-29 12:24:00,
2013-06-29 07:29:00,71.6,58.3,29.74,NNE,22,2.9,2.9,63,0.00,,---,0.00,VWS V14.01,2013-06-29 12:29:00,
2013-06-29 07:34:00,71.8,58.5,29.74,NNW,338,2.7,5.4,63,0.00,,---,0.00,VWS V14.01,2013-06-29 12:34:00,
2013-06-29 07:39:00,72.1,58.9,29.74,NNE,22,3.1,4.3,63,0.00,,---,0.00,VWS V14.01,2013-06-29 12:39:00,
2013-06-29 07:44:00,72.5,59.2,29.74,NNE,22,4.3,4.9,63,0.00,,---,0.00,VWS V14.01,2013-06-29 12:44:00,
2013-06-29 07:49:00,72.7,59.4,29.74,ENE,68,2.7,3.1,63,0.00,,---,0.00,VWS V14.01,2013-06-29 12:49:00,
2013-06-29 07:54:00,73.2,59.4,29.74,NE,45,1.6,2.7,62,0.00,,---,0.00,VWS V14.01,2013-06-29 12:54:00,
2013-06-29 07:59:00,73.8,59.5,29.74,NNE,22,3.4,8.1,61,0.00,,---,0.00,VWS V14.01,2013-06-29 12:59:00,
2013-06-29 08:04:00,73.9,59.7,29.74,NNW,338,2.5,5.6,61,0.00,,---,0.00,VWS V14.01,2013-06-29 13:04:00,
2013-06-29 08:09:00,74.1,59.4,29.74,NNW,338,1.6,3.6,60,0.00,,---,0.00,VWS V14.01,2013-06-29 13:09:00,
2013-06-29 08:14:00,74.5,59.2,29.74,West,270,3.1,3.1,59,0.00,,---,0.00,VWS V14.01,2013-06-29 13:14:00,
2013-06-29 08:19:00,74.8,60.0,29.74,ENE,68,3.8,3.8,60,0.00,,---,0.00,VWS V14.01,2013-06-29 13:19:00,
2013-06-29 08:24:00,75.0,59.7,29.74,ENE,68,3.8,4.3,59,0.00,,---,0.00,VWS V14.01,2013-06-29 13:24:00,
2013-06-29 08:29:00,75.4,59.6,29.74,ENE,68,0.9,4.0,58,0.00,,---,0.00,VWS V14.01,2013-06-29 13:29:00,
2013-06-29 08:34:00,75.7,59.9,29.74,North,0,6.0,6.0,58,0.00,,---,0.00,VWS V14.01,2013-06-29 13:34:00,
2013-06-29 08:39:00,76.1,59.8,29.74,SE,135,1.6,3.1,57,0.00,,---,0.00,VWS V14.01,2013-06-29 13:39:00,
2013-06-29 08:44:00,76.3,60.4,29.74,East,90,2.9,3.1,58,0.00,,---,0.00,VWS V14.01,2013-06-29 13:44:00,
2013-06-29 08:49:00,76.6,60.3,29.74,NNE,22,3.1,3.8,57,0.00,,---,0.00,VWS V14.01,2013-06-29 13:49:00,
2013-06-29 08:54:00,77.0,60.1,29.74,East,90,0.0,4.7,56,0.00,,---,0.00,VWS V14.01,2013-06-29 13:54:00,
2013-06-29 08:59:00,77.5,60.1,29.74,East,90,4.9,4.9,55,0.00,,---,0.00,VWS V14.01,2013-06-29 13:59:00,
2013-06-29 09:04:00,77.7,60.3,29.74,ENE,68,1.6,2.7,55,0.00,,---,0.00,VWS V14.01,2013-06-29 14:04:00,
2013-06-29 09:09:00,78.3,61.3,29.74,NE,45,0.0,3.6,56,0.00,,---,0.00,VWS V14.01,2013-06-29 14:09:00,
2013-06-29 09:14:00,78.6,60.6,29.74,East,90,4.3,6.5,54,0.00,,---,0.00,VWS V14.01,2013-06-29 14:14:00,
2013-06-29 09:19:00,79.2,60.6,29.74,NE,45,2.7,2.9,53,0.00,,---,0.00,VWS V14.01,2013-06-29 14:19:00,
2013-06-29 09:24:00,79.7,60.5,29.74,NNE,22,9.6,9.6,52,0.00,,---,0.00,VWS V14.01,2013-06-29 14:24:00,
2013-06-29 09:29:00,80.2,61.0,29.74,NE,45,2.0,3.1,52,0.00,,---,0.00,VWS V14.01,2013-06-29 14:29:00,
2013-06-29 09:34:00,80.8,60.4,29.74,West,270,3.6,3.6,50,0.00,,---,0.00,VWS V14.01,2013-06-29 14:34:00,
2013-06-29 09:39:00,81.5,61.7,29.74,NE,45,0.0,0.0,51,0.00,,---,0.00,VWS V14.01,2013-06-29 14:39:00,
2013-06-29 09:44:00,82.0,61.0,29.74,NNE,22,3.4,6.3,49,0.00,,---,0.00,VWS V14.01,2013-06-29 14:44:00,
2013-06-29 09:49:00,82.8,60.5,29.74,ENE,68,6.0,6.0,47,0.00,,---,0.00,VWS V14.01,2013-06-29 14:49:00,
2013-06-29 09:54:00,83.8,62.7,29.74,NW,315,4.7,4.7,49,0.00,,---,0.00,VWS V14.01,2013-06-29 14:54:00,
2013-06-29 09:59:00,84.2,61.2,29.74,West,270,5.8,5.8,46,0.00,,---,0.00,VWS V14.01,2013-06-29 14:59:00,
2013-06-29 10:04:00,84.7,61.1,29.74,NNW,338,5.4,6.3,45,0.00,,---,0.00,VWS V14.01,2013-06-29 15:04:00,
2013-06-29 10:09:00,84.9,60.0,29.74,NNE,22,2.7,7.2,43,0.00,,---,0.00,VWS V14.01,2013-06-29 15:09:00,
2013-06-29 10:14:00,85.6,60.6,29.74,NNE,22,2.0,2.0,43,0.00,,---,0.00,VWS V14.01,2013-06-29 15:14:00,
2013-06-29 10:19:00,86.7,60.9,29.74,NNW,338,4.0,7.2,42,0.00,,---,0.00,VWS V14.01,2013-06-29 15:19:00,
2013-06-29 10:24:00,86.7,60.2,29.74,ENE,68,1.6,4.0,41,0.00,,---,0.00,VWS V14.01,2013-06-29 15:24:00,
2013-06-29 10:29:00,87.1,59.8,29.74,NNE,22,2.7,5.4,40,0.00,,---,0.00,VWS V14.01,2013-06-29 15:29:00,
2013-06-29 10:34:00,88.9,62.2,29.76,NNW,338,8.5,8.5,41,0.00,,---,0.00,VWS V14.01,2013-06-29 15:34:00,
2013-06-29 10:39:00,89.6,61.4,29.76,East,90,7.4,7.4,39,0.00,,---,0.00,VWS V14.01,2013-06-29 15:39:00,
2013-06-29 10:44:00,90.7,62.3,29.76,ENE,68,5.8,6.5,39,0.00,,---,0.00,VWS V14.01,2013-06-29 15:44:00,
2013-06-29 10:49:00,91.8,61.8,29.76,North,0,6.0,6.0,37,0.00,,---,0.00,VWS V14.01,2013-06-29 15:49:00,
2013-06-29 10:54:00,90.5,57.5,29.74,East,90,3.6,6.3,33,0.00,,---,0.00,VWS V14.01,2013-06-29 15:54:00,
2013-06-29 10:59:00,91.0,58.0,29.74,NNE,22,6.5,6.5,33,0.00,,---,0.00,VWS V14.01,2013-06-29 15:59:00,
2013-06-29 11:04:00,91.8,59.4,29.74,NE,45,2.9,2.9,34,0.00,,---,0.00,VWS V14.01,2013-06-29 16:04:00,
2013-06-29 11:09:00,92.5,60.9,29.74,North,0,3.6,7.4,35,0.00,,---,0.00,VWS V14.01,2013-06-29 16:09:00,
2013-06-29 11:14:00,92.3,58.2,29.74,NNW,338,6.3,6.3,32,0.00,,---,0.00,VWS V14.01,2013-06-29 16:14:00,
2013-06-29 11:19:00,89.6,56.7,29.74,ENE,68,4.0,4.9,33,0.00,,---,0.00,VWS V14.01,2013-06-29 16:19:00,
2013-06-29 11:24:00,88.9,56.9,29.74,NNW,338,3.1,3.1,34,0.00,,---,0.00,VWS V14.01,2013-06-29 16:24:00,
2013-06-29 11:29:00,89.6,60.7,29.74,ESE,112,2.0,4.0,38,0.00,,---,0.00,VWS V14.01,2013-06-29 16:29:00,
2013-06-29 11:34:00,90.9,59.5,29.74,NE,45,4.0,5.8,35,0.00,,---,0.00,VWS V14.01,2013-06-29 16:34:00,
2013-06-29 11:39:00,92.5,61.7,29.74,NNE,22,6.5,6.5,36,0.00,,---,0.00,VWS V14.01,2013-06-29 16:39:00,
2013-06-29 11:44:00,90.5,59.1,29.74,NNW,338,3.4,6.5,35,0.00,,---,0.00,VWS V14.01,2013-06-29 16:44:00,
2013-06-29 11:49:00,90.5,59.1,29.74,ENE,68,2.7,2.7,35,0.00,,---,0.00,VWS V14.01,2013-06-29 16:49:00,
2013-06-29 11:54:00,90.5,59.1,29.74,ENE,68,3.8,5.6,35,0.00,,---,0.00,VWS V14.01,2013-06-29 16:54:00,
2013-06-29 11:59:00,90.0,59.5,29.74,North,0,2.0,2.9,36,0.00,,---,0.00,VWS V14.01,2013-06-29 16:59:00,
2013-06-29 12:04:00,92.5,61.7,29.76,NNE,22,6.0,6.0,36,0.00,,---,0.00,VWS V14.01,2013-06-29 17:04:00,
2013-06-29 12:09:00,93.4,62.5,29.76,NW,315,2.2,6.0,36,0.00,,---,0.00,VWS V14.01,2013-06-29 17:09:00,
2013-06-29 12:14:00,91.4,58.3,29.76,NNE,22,2.9,3.4,33,0.00,,---,0.00,VWS V14.01,2013-06-29 17:14:00,
2013-06-29 12:19:00,91.6,59.3,29.76,NNE,22,6.0,8.5,34,0.00,,---,0.00,VWS V14.01,2013-06-29 17:19:00,
2013-06-29 12:24:00,93.4,61.7,29.76,NNW,338,0.0,2.5,35,0.00,,---,0.00,VWS V14.01,2013-06-29 17:24:00,
2013-06-29 12:29:00,90.5,57.5,29.76,NE,45,0.0,2.7,33,0.00,,---,0.00,VWS V14.01,2013-06-29 17:29:00,
2013-06-29 12:34:00,90.5,59.1,29.76,WSW,248,3.1,6.3,35,0.00,,---,0.00,VWS V14.01,2013-06-29 17:34:00,
2013-06-29 12:39:00,91.9,59.6,29.76,ENE,68,3.4,4.0,34,0.00,,---,0.00,VWS V14.01,2013-06-29 17:39:00,
2013-06-29 12:44:00,91.2,59.8,29.76,North,0,3.1,4.0,35,0.00,,---,0.00,VWS V14.01,2013-06-29 17:44:00,
2013-06-29 12:49:00,92.1,60.6,29.76,NNW,338,2.7,5.4,35,0.00,,---,0.00,VWS V14.01,2013-06-29 17:49:00,
2013-06-29 12:54:00,92.8,61.2,29.76,ESE,112,4.9,4.9,35,0.00,,---,0.00,VWS V14.01,2013-06-29 17:54:00,
2013-06-29 12:59:00,91.0,58.0,29.76,SE,135,6.0,6.0,33,0.00,,---,0.00,VWS V14.01,2013-06-29 17:59:00,
2013-06-29 13:04:00,91.4,59.1,29.76,NW,315,6.0,6.0,34,0.00,,---,0.00,VWS V14.01,2013-06-29 18:04:00,
2013-06-29 13:09:00,91.8,61.8,29.76,North,0,2.7,3.6,37,0.00,,---,0.00,VWS V14.01,2013-06-29 18:09:00,
2013-06-29 13:14:00,92.5,62.4,29.76,North,0,3.6,6.3,37,0.00,,---,0.00,VWS V14.01,2013-06-29 18:14:00,
2013-06-29 13:19:00,89.8,56.0,29.76,ESE,112,4.9,7.4,32,0.00,,---,0.00,VWS V14.01,2013-06-29 18:19:00,
2013-06-29 13:24:00,88.7,57.6,29.76,WNW,292,4.3,4.3,35,0.00,,---,0.00,VWS V14.01,2013-06-29 18:24:00,
2013-06-29 13:29:00,90.3,60.5,29.76,NE,45,3.1,3.1,37,0.00,,---,0.00,VWS V14.01,2013-06-29 18:29:00,
2013-06-29 13:34:00,91.2,60.6,29.76,East,90,3.4,6.3,36,0.00,,---,0.00,VWS V14.01,2013-06-29 18:34:00,
2013-06-29 13:39:00,91.8,61.0,29.76,ESE,112,5.8,5.8,36,0.00,,---,0.00,VWS V14.01,2013-06-29 18:39:00,
2013-06-29 13:44:00,91.9,60.4,29.76,NE,45,2.7,3.8,35,0.00,,---,0.00,VWS V14.01,2013-06-29 18:44:00,
2013-06-29 13:49:00,92.3,60.7,29.76,East,90,3.4,4.7,35,0.00,,---,0.00,VWS V14.01,2013-06-29 18:49:00,
2013-06-29 13:54:00,91.0,58.0,29.76,NNW,338,3.1,4.7,33,0.00,,---,0.00,VWS V14.01,2013-06-29 18:54:00,
2013-06-29 13:59:00,91.0,59.6,29.76,ENE,68,2.0,2.0,35,0.00,,---,0.00,VWS V14.01,2013-06-29 18:59:00,
2013-06-29 14:04:00,91.0,57.1,29.76,ENE,68,2.9,4.9,32,0.00,,---,0.00,VWS V14.01,2013-06-29 19:04:00,
2013-06-29 14:09:00,91.8,58.6,29.76,ENE,68,4.0,4.7,33,0.00,,---,0.00,VWS V14.01,2013-06-29 19:09:00,
2013-06-29 14:14:00,92.3,59.1,29.76,NE,45,1.6,3.4,33,0.00,,---,0.00,VWS V14.01,2013-06-29 19:14:00,
2013-06-29 14:19:00,91.8,59.4,29.76,ENE,68,3.4,3.4,34,0.00,,---,0.00,VWS V14.01,2013-06-29 19:19:00,
2013-06-29 14:24:00,91.0,58.0,29.76,East,90,1.6,2.0,33,0.00,,---,0.00,VWS V14.01,2013-06-29 19:24:00,
2013-06-29 14:29:00,89.4,55.7,29.76,NNE,22,3.8,3.8,32,0.00,,---,0.00,VWS V14.01,2013-06-29 19:29:00,
2013-06-29 14:34:00,89.6,59.1,29.76,ENE,68,6.5,7.2,36,0.00,,---,0.00,VWS V14.01,2013-06-29 19:34:00,
2013-06-29 14:39:00,89.6,56.7,29.76,NNW,338,3.1,3.1,33,0.00,,---,0.00,VWS V14.01,2013-06-29 19:39:00,
2013-06-29 14:44:00,89.1,57.1,29.76,North,0,8.7,8.7,34,0.00,,---,0.00,VWS V14.01,2013-06-29 19:44:00,
2013-06-29 14:49:00,88.9,57.7,29.76,ENE,68,1.6,2.5,35,0.00,,---,0.00,VWS V14.01,2013-06-29 19:49:00,
2013-06-29 14:54:00,89.8,58.5,29.76,NNW,338,7.2,7.2,35,0.00,,---,0.00,VWS V14.01,2013-06-29 19:54:00,
2013-06-29 14:59:00,89.2,58.0,29.76,ENE,68,7.4,7.4,35,0.00,,---,0.00,VWS V14.01,2013-06-29 19:59:00,
2013-06-29 15:04:00,90.0,60.2,29.76,NNE,22,3.4,3.4,37,0.00,,---,0.00,VWS V14.01,2013-06-29 20:04:00,
2013-06-29 15:09:00,91.2,60.6,29.74,ENE,68,3.6,3.6,36,0.00,,---,0.00,VWS V14.01,2013-06-29 20:09:00,
2013-06-29 15:14:00,91.9,60.4,29.74,ENE,68,0.0,4.9,35,0.00,,---,0.00,VWS V14.01,2013-06-29 20:14:00,
2013-06-29 15:18:00,91.9,59.6,29.74,NNE,22,1.1,1.6,34,0.00,,---,0.00,VWS V14.01,2013-06-29 20:18:00,
2013-06-29 15:23:00,92.8,60.4,29.74,ENE,68,3.4,5.8,34,0.00,,---,0.00,VWS V14.01,2013-06-29 20:23:00,
2013-06-29 15:28:00,93.7,62.8,29.74,WNW,292,3.1,3.1,36,0.00,,---,0.00,VWS V14.01,2013-06-29 20:28:00,
2013-06-29 15:33:00,93.7,60.3,29.74,SE,135,2.7,4.0,33,0.00,,---,0.00,VWS V14.01,2013-06-29 20:33:00,
2013-06-29 15:38:00,94.3,60.8,29.74,ENE,68,2.9,6.5,33,0.00,,---,0.00,VWS V14.01,2013-06-29 20:38:00,
2013-06-29 15:43:00,94.6,59.3,29.74,ENE,68,4.0,4.0,31,0.00,,---,0.00,VWS V14.01,2013-06-29 20:43:00,
2013-06-29 15:48:00,93.7,58.6,29.74,NNW,338,4.7,7.4,31,0.00,,---,0.00,VWS V14.01,2013-06-29 20:48:00,
2013-06-29 15:53:00,93.4,57.3,29.74,NE,45,4.7,4.7,30,0.00,,---,0.00,VWS V14.01,2013-06-29 20:53:00,
2013-06-29 15:58:00,93.2,57.2,29.74,NE,45,3.1,7.8,30,0.00,,---,0.00,VWS V14.01,2013-06-29 20:58:00,
2013-06-29 16:03:00,93.4,59.1,29.74,East,90,3.6,3.6,32,0.00,,---,0.00,VWS V14.01,2013-06-29 21:03:00,
2013-06-29 16:08:00,93.6,58.4,29.74,NNE,22,4.0,10.1,31,0.00,,---,0.00,VWS V14.01,2013-06-29 21:08:00,
2013-06-29 16:13:00,93.7,57.7,29.74,North,0,4.3,6.5,30,0.00,,---,0.00,VWS V14.01,2013-06-29 21:13:00,
2013-06-29 16:18:00,93.2,57.2,29.74,NNE,22,4.9,7.2,30,0.00,,---,0.00,VWS V14.01,2013-06-29 21:18:00,
2013-06-29 16:23:00,92.8,56.9,29.74,NE,45,4.9,8.1,30,0.00,,---,0.00,VWS V14.01,2013-06-29 21:23:00,
2013-06-29 16:28:00,92.3,56.4,29.74,ENE,68,4.0,5.8,30,0.00,,---,0.00,VWS V14.01,2013-06-29 21:28:00,
2013-06-29 16:33:00,91.8,55.0,29.74,NNE,22,4.3,5.6,29,0.00,,---,0.00,VWS V14.01,2013-06-29 21:33:00,
2013-06-29 16:38:00,91.0,55.3,29.74,East,90,4.9,6.5,30,0.00,,---,0.00,VWS V14.01,2013-06-29 21:38:00,
2013-06-29 16:43:00,90.0,54.4,29.74,North,0,8.5,8.5,30,0.00,,---,0.00,VWS V14.01,2013-06-29 21:43:00,
2013-06-29 16:48:00,89.6,55.9,29.74,NNE,22,4.7,7.4,32,0.00,,---,0.00,VWS V14.01,2013-06-29 21:48:00,
2013-06-29 16:53:00,88.2,54.6,29.74,NNW,338,2.7,4.0,32,0.00,,---,0.00,VWS V14.01,2013-06-29 21:53:00,
2013-06-29 16:58:00,87.1,54.5,29.74,NNW,338,3.8,6.3,33,0.00,,---,0.00,VWS V14.01,2013-06-29 21:58:00,
2013-06-29 17:03:00,86.5,54.9,29.74,North,0,5.4,8.5,34,0.00,,---,0.00,VWS V14.01,2013-06-29 22:03:00,
2013-06-29 17:08:00,86.2,55.3,29.74,ESE,112,5.8,8.5,35,0.00,,---,0.00,VWS V14.01,2013-06-29 22:08:00,
2013-06-29 17:13:00,85.8,55.0,29.74,ENE,68,4.3,4.3,35,0.00,,---,0.00,VWS V14.01,2013-06-29 22:13:00,
2013-06-29 17:18:00,85.8,56.6,29.74,NNE,22,4.9,8.7,37,0.00,,---,0.00,VWS V14.01,2013-06-29 22:18:00,
2013-06-29 17:23:00,85.6,56.4,29.74,North,0,8.1,8.5,37,0.00,,---,0.00,VWS V14.01,2013-06-29 22:23:00,
2013-06-29 17:28:00,85.5,56.2,29.74,North,0,7.4,7.4,37,0.00,,---,0.00,VWS V14.01,2013-06-29 22:28:00,
2013-06-29 17:33:00,84.9,55.8,29.74,ESE,112,5.4,5.8,37,0.00,,---,0.00,VWS V14.01,2013-06-29 22:33:00,
2013-06-29 17:38:00,84.4,55.3,29.74,ESE,112,5.8,7.4,37,0.00,,---,0.00,VWS V14.01,2013-06-29 22:38:00,
2013-06-29 17:43:00,83.8,54.8,29.74,ENE,68,6.9,6.9,37,0.00,,---,0.00,VWS V14.01,2013-06-29 22:43:00,
2013-06-29 17:48:00,83.7,55.4,29.74,NNE,22,2.0,3.1,38,0.00,,---,0.00,VWS V14.01,2013-06-29 22:48:00,
2013-06-29 17:53:00,83.1,54.9,29.74,NNW,338,6.0,6.0,38,0.00,,---,0.00,VWS V14.01,2013-06-29 22:53:00,
2013-06-29 17:58:00,82.9,54.8,29.74,ENE,68,3.1,5.6,38,0.00,,---,0.00,VWS V14.01,2013-06-29 22:58:00,
2013-06-29 18:03:00,82.8,55.3,29.74,NE,45,4.7,4.7,39,0.00,,---,0.00,VWS V14.01,2013-06-29 23:03:00,
2013-06-29 18:08:00,82.4,55.7,29.74,NE,45,2.7,3.6,40,0.00,,---,0.00,VWS V14.01,2013-06-29 23:08:00,
2013-06-29 18:13:00,82.4,55.7,29.74,NE,45,3.1,4.9,40,0.00,,---,0.00,VWS V14.01,2013-06-29 23:13:00,
2013-06-29 18:18:00,82.2,55.5,29.74,NNE,22,7.6,7.6,40,0.00,,---,0.00,VWS V14.01,2013-06-29 23:18:00,
2013-06-29 18:23:00,82.0,55.4,29.74,ENE,68,2.7,3.6,40,0.00,,---,0.00,VWS V14.01,2013-06-29 23:23:00,
2013-06-29 18:28:00,81.9,55.2,29.74,ESE,112,2.0,3.1,40,0.00,,---,0.00,VWS V14.01,2013-06-29 23:28:00,
2013-06-29 18:33:00,81.5,54.9,29.74,SSE,158,3.1,3.1,40,0.00,,---,0.00,VWS V14.01,2013-06-29 23:33:00,
2013-06-29 18:38:00,81.1,54.5,29.74,ENE,68,1.6,3.4,40,0.00,,---,0.00,VWS V14.01,2013-06-29 23:38:00,
2013-06-29 18:43:00,80.8,54.2,29.74,WNW,292,0.0,1.6,40,0.00,,---,0.00,VWS V14.01,2013-06-29 23:43:00,
2013-06-29 18:48:00,80.6,54.1,29.74,NNE,22,1.6,3.1,40,0.00,,---,0.00,VWS V14.01,2013-06-29 23:48:00,
2013-06-29 18:53:00,80.4,54.6,29.76,ENE,68,0.0,1.6,41,0.00,,---,0.00,VWS V14.01,2013-06-29 23:53:00,
2013-06-29 18:58:00,80.2,55.1,29.76,NNE,22,2.0,2.7,42,0.00,,---,0.00,VWS V14.01,2013-06-29 23:58:00,
2013-06-29 19:03:00,79.9,54.1,29.76,ENE,68,10.7,14.8,41,0.00,,---,0.00,VWS V14.01,2013-06-30 00:03:00,
2013-06-29 19:08:00,77.9,52.3,29.79,ESE,112,14.1,16.1,41,0.00,,---,0.00,VWS V14.01,2013-06-30 00:08:00,
2013-06-29 19:13:00,76.8,52.7,29.79,NE,45,3.4,5.4,43,0.00,,---,0.00,VWS V14.01,2013-06-30 00:13:00,
2013-06-29 19:18:00,76.3,52.8,29.79,East,90,5.6,5.6,44,0.00,,---,0.00,VWS V14.01,2013-06-30 00:18:00,
2013-06-29 19:23:00,75.4,52.6,29.79,ENE,68,2.9,4.9,45,0.00,,---,0.00,VWS V14.01,2013-06-30 00:23:00,
2013-06-29 19:28:00,74.8,53.8,29.79,ENE,68,4.3,10.7,48,0.00,,---,0.00,VWS V14.01,2013-06-30 00:28:00,
2013-06-29 19:33:00,74.1,54.3,29.79,East,90,5.4,7.8,50,0.00,,---,0.00,VWS V14.01,2013-06-30 00:33:00,
2013-06-29 19:38:00,73.4,54.2,29.79,ESE,112,2.9,6.5,51,0.00,,---,0.00,VWS V14.01,2013-06-30 00:38:00,
2013-06-29 19:43:00,72.7,55.6,29.79,NNE,22,4.0,10.7,55,0.00,,---,0.00,VWS V14.01,2013-06-30 00:43:00,
2013-06-29 19:48:00,71.8,55.3,29.79,NNE,22,3.1,3.1,56,0.00,,---,0.00,VWS V14.01,2013-06-30 00:48:00,
2013-06-29 19:53:00,71.2,56.7,29.79,NNE,22,2.2,2.7,60,0.00,,---,0.00,VWS V14.01,2013-06-30 00:53:00,
2013-06-29 19:58:00,71.2,56.7,29.79,ESE,112,0.0,2.0,60,0.00,,---,0.00,VWS V14.01,2013-06-30 00:58:00,
2013-06-29 20:03:00,70.9,57.2,29.79,ESE,112,0.0,0.0,62,0.00,,---,0.00,VWS V14.01,2013-06-30 01:03:00,
2013-06-29 20:08:00,70.7,57.5,29.76,NNE,22,0.0,0.0,63,0.00,,---,0.00,VWS V14.01,2013-06-30 01:08:00,
2013-06-29 20:13:00,70.5,57.8,29.76,ESE,112,0.0,0.0,64,0.00,,---,0.00,VWS V14.01,2013-06-30 01:13:00,
2013-06-29 20:18:00,70.2,57.9,29.76,NNE,22,0.0,0.0,65,0.00,,---,0.00,VWS V14.01,2013-06-30 01:18:00,
2013-06-29 20:23:00,70.0,57.7,29.76,NNE,22,0.0,0.0,65,0.00,,---,0.00,VWS V14.01,2013-06-30 01:23:00,
2013-06-29 20:28:00,69.4,58.0,29.76,ENE,68,0.0,0.0,67,0.00,,---,0.00,VWS V14.01,2013-06-30 01:28:00,
2013-06-29 20:33:00,69.3,58.7,29.76,ENE,68,0.0,0.0,69,0.00,,---,0.00,VWS V14.01,2013-06-30 01:33:00,
2013-06-29 20:38:00,69.1,58.1,29.76,NNE,22,0.0,0.0,68,0.00,,---,0.00,VWS V14.01,2013-06-30 01:38:00,
2013-06-29 20:43:00,68.9,58.3,29.76,ESE,112,0.0,0.0,69,0.00,,---,0.00,VWS V14.01,2013-06-30 01:43:00,
2013-06-29 20:48:00,68.7,59.0,29.76,ENE,68,0.0,0.0,71,0.00,,---,0.00,VWS V14.01,2013-06-30 01:48:00,
2013-06-29 20:53:00,68.4,58.6,29.76,North,0,0.0,0.0,71,0.00,,---,0.00,VWS V14.01,2013-06-30 01:53:00,
2013-06-29 20:58:00,68.2,58.8,29.76,ENE,68,0.0,0.0,72,0.00,,---,0.00,VWS V14.01,2013-06-30 01:58:00,
2013-06-29 21:03:00,68.0,59.0,29.76,NNW,338,0.0,0.0,73,0.00,,---,0.00,VWS V14.01,2013-06-30 02:03:00,
2013-06-29 21:08:00,68.0,58.7,29.76,ENE,68,0.0,0.0,72,0.00,,---,0.00,VWS V14.01,2013-06-30 02:08:00,
2013-06-29 21:13:00,68.0,58.7,29.76,ENE,68,1.1,2.2,72,0.00,,---,0.00,VWS V14.01,2013-06-30 02:13:00,
2013-06-29 21:18:00,67.8,58.9,29.76,North,0,2.5,2.5,73,0.00,,---,0.00,VWS V14.01,2013-06-30 02:18:00,
2013-06-29 21:23:00,67.8,58.9,29.76,NW,315,0.0,0.0,73,0.00,,---,0.00,VWS V14.01,2013-06-30 02:23:00,
2013-06-29 21:28:00,67.6,58.7,29.76,NNE,22,0.0,0.0,73,0.00,,---,0.00,VWS V14.01,2013-06-30 02:28:00,
2013-06-29 21:33:00,67.5,58.5,29.76,NNE,22,0.0,0.0,73,0.00,,---,0.00,VWS V14.01,2013-06-30 02:33:00,
2013-06-29 21:38:00,67.5,58.5,29.76,North,0,0.0,0.0,73,0.00,,---,0.00,VWS V14.01,2013-06-30 02:38:00,
2013-06-29 21:43:00,67.3,58.7,29.76,WNW,292,0.0,0.0,74,0.00,,---,0.00,VWS V14.01,2013-06-30 02:43:00,
2013-06-29 21:48:00,67.3,58.7,29.76,WNW,292,0.0,0.0,74,0.00,,---,0.00,VWS V14.01,2013-06-30 02:48:00,
2013-06-29 21:53:00,67.1,58.9,29.76,WNW,292,0.0,0.0,75,0.00,,---,0.00,VWS V14.01,2013-06-30 02:53:00,
2013-06-29 21:58:00,67.1,58.9,29.76,NNE,22,0.0,0.0,75,0.00,,---,0.00,VWS V14.01,2013-06-30 02:58:00,
2013-06-29 22:03:00,67.1,58.9,29.76,NNE,22,0.0,0.0,75,0.00,,---,0.00,VWS V14.01,2013-06-30 03:03:00,
2013-06-29 22:08:00,66.9,59.1,29.76,NNE,22,0.0,0.0,76,0.00,,---,0.00,VWS V14.01,2013-06-30 03:08:00,
2013-06-29 22:13:00,66.9,59.1,29.76,NNW,338,0.0,0.0,76,0.00,,---,0.00,VWS V14.01,2013-06-30 03:13:00,
2013-06-29 22:18:00,66.9,59.1,29.76,NNW,338,0.0,0.0,76,0.00,,---,0.00,VWS V14.01,2013-06-30 03:18:00,
2013-06-29 22:23:00,66.9,59.1,29.76,NW,315,0.0,0.0,76,0.00,,---,0.00,VWS V14.01,2013-06-30 03:23:00,
2013-06-29 22:28:00,66.9,59.1,29.76,NW,315,0.0,0.0,76,0.00,,---,0.00,VWS V14.01,2013-06-30 03:28:00,
2013-06-29 22:33:00,66.9,59.1,29.76,NW,315,0.0,0.0,76,0.00,,---,0.00,VWS V14.01,2013-06-30 03:33:00,
2013-06-29 22:38:00,66.9,59.1,29.76,WNW,292,0.0,0.0,76,0.00,,---,0.00,VWS V14.01,2013-06-30 03:38:00,
2013-06-29 22:43:00,66.9,58.8,29.76,NNE,22,0.0,0.0,75,0.00,,---,0.00,VWS V14.01,2013-06-30 03:43:00,
2013-06-29 22:48:00,66.7,58.6,29.76,WNW,292,0.0,0.0,75,0.00,,---,0.00,VWS V14.01,2013-06-30 03:48:00,
2013-06-29 22:53:00,66.7,58.9,29.76,WNW,292,0.0,0.0,76,0.00,,---,0.00,VWS V14.01,2013-06-30 03:53:00,
2013-06-29 22:58:00,66.9,59.5,29.76,West,270,0.0,0.0,77,0.00,,---,0.00,VWS V14.01,2013-06-30 03:58:00,
2013-06-29 23:01:00,66.9,59.5,29.76,WNW,292,0.0,0.0,77,0.00,,---,0.00,VWS V14.01,2013-06-30 04:01:00,
2013-06-29 23:06:00,66.9,59.8,29.76,West,270,1.6,1.6,78,0.00,,---,0.00,VWS V14.01,2013-06-30 04:06:00,
2013-06-29 23:11:00,66.9,59.8,29.76,WNW,292,0.0,0.0,78,0.00,,---,0.00,VWS V14.01,2013-06-30 04:11:00,
2013-06-29 23:16:00,67.1,60.0,29.76,West,270,0.0,0.0,78,0.00,,---,0.00,VWS V14.01,2013-06-30 04:16:00,
2013-06-29 23:21:00,67.3,60.2,29.76,NNE,22,2.9,2.9,78,0.00,,---,0.00,VWS V14.01,2013-06-30 04:21:00,
2013-06-29 23:26:00,67.3,60.2,29.76,NW,315,0.0,2.0,78,0.00,,---,0.00,VWS V14.01,2013-06-30 04:26:00,
2013-06-29 23:31:00,67.5,60.4,29.76,North,0,0.0,0.0,78,0.00,,---,0.00,VWS V14.01,2013-06-30 04:31:00,
2013-06-29 23:36:00,67.5,60.4,29.76,North,0,0.0,0.0,78,0.00,,---,0.00,VWS V14.01,2013-06-30 04:36:00,
2013-06-29 23:41:00,67.5,60.4,29.76,NNE,22,1.1,2.0,78,0.00,,---,0.00,VWS V14.01,2013-06-30 04:41:00,
2013-06-29 23:46:00,67.6,60.5,29.76,ENE,68,0.0,0.0,78,0.00,,---,0.00,VWS V14.01,2013-06-30 04:46:00,
2013-06-29 23:51:00,67.5,60.4,29.76,NNW,338,1.3,1.6,78,0.00,,---,0.00,VWS V14.01,2013-06-30 04:51:00,
2013-06-29 23:56:00,67.5,60.0,29.76,NNW,338,1.6,1.6,77,0.00,,---,0.00,VWS V14.01,2013-06-30 04:56:00,